La Parra, Spain

8:34 AM CEST on April 29, 2017 (GMT +0200)
La Parra

Weather History for 08451 - August, 2013

Change the Weather History Date:

Monday, August 12, 2013

  Actual Average Record
Temperature  
Mean Temperature 80 °F -  
Max Temperature 100 °F 86 °F - ()
Min Temperature 60 °F 62 °F - ()
Cooling Degree Days 15    
Growing Degree Days 30 (Base 50)    
Moisture  
Dew Point 54 °F    
Average Humidity 42    
Maximum Humidity 88    
Minimum Humidity 11    
Precipitation  
Precipitation 0.00 in 0.01 in - ()
Sea Level Pressure  
Sea Level Pressure 29.92 in    
Wind  
Wind Speed 3 mph ()    
Max Wind Speed 13 mph    
Max Gust Speed -    
Visibility 18.0 miles    
Events      
T = Trace of Precipitation, MM = Missing Value Source: Averaged Metar Reports

Daily Weather History Graph

Daily Weather History Graph

Search for Another Location

Airport or City:

Trip Planner

Search our weather history database for the weather conditions in past years. The results will help you decide how hot, cold, wet, or windy it might be!

Date:

Astronomy

Aug. 12, 2013 Rise Set
Actual Time 7:39 AM CEST 9:18 PM CEST
Civil Twilight 7:11 AM CEST 9:46 PM CEST
Nautical Twilight 6:37 AM CEST 10:19 PM CEST
Astronomical Twilight 6:02 AM CEST 10:55 PM CEST
Moon 1:04 PM CEST (8/12) No Moon Set
Length of Visible Light 14h 35m
Length of Day
13h 39m
Waxing Crescent, 28% of the Moon is Illuminated
Aug 12
Waxing Crescent
Aug 14
First Quarter
Aug 21
Full
Aug 28
Last Quarter
Sep 5
New

Hourly Weather History & Observations

Time (CEST) Temp. Heat Index Dew Point Humidity Pressure Visibility Wind Dir Wind Speed Gust Speed Precip Events Conditions
2:00 AM 70 °F - 53 °F 44% 29.97 in 16 mi North 4.6 mph - -  
5:00 AM 64.4 °F - 57.2 °F 77% 29.95 in - Variable 2.3 mph - N/A   Clear
5:30 AM 64.4 °F - 57.2 °F 77% 29.92 in - Calm Calm - N/A   Clear
6:00 AM 64.4 °F - 57.2 °F 77% 29.95 in - Variable 1.2 mph - N/A   Clear
6:30 AM 60.8 °F - 55.4 °F 82% 29.92 in - Variable 1.2 mph - N/A   Clear
7:00 AM 60.8 °F - 55.4 °F 82% 29.92 in - Calm Calm - N/A   Clear
7:30 AM 62.6 °F - 57.2 °F 82% 29.95 in - Calm Calm - N/A   Clear
8:00 AM 61 °F - 56 °F 77% 29.96 in 19 mi Calm Calm - -   Scattered Clouds
8:00 AM 60.8 °F - 57.2 °F 88% 29.95 in - Calm Calm - N/A   Clear
8:30 AM 62.6 °F - 57.2 °F 82% 29.95 in - Variable 1.2 mph - N/A   Clear
9:00 AM 69.8 °F - 57.2 °F 64% 29.98 in - Calm Calm - N/A   Clear
9:30 AM 71.6 °F - 59.0 °F 64% 29.98 in - Variable 2.3 mph - N/A   Clear
10:00 AM 77.0 °F - 59.0 °F 54% 29.95 in - Variable 1.2 mph - N/A   Clear
10:30 AM 80.6 °F 81.1 °F 59.0 °F 48% 29.95 in - Variable 1.2 mph - N/A   Clear
11:00 AM 84.2 °F 82.8 °F 53.6 °F 35% 29.95 in - Variable 1.2 mph - N/A   Clear
11:30 AM 86.0 °F 84.2 °F 53.6 °F 33% 29.95 in - Variable 1.2 mph - N/A   Clear
12:00 PM 87.8 °F - 51.8 °F 29% 29.95 in - Variable 1.2 mph - N/A   Clear
12:30 PM 89.6 °F 87.3 °F 53.6 °F 29% 29.95 in - Variable 1.2 mph - N/A   Clear
1:00 PM 93.2 °F - 50.0 °F 23% 29.95 in - Variable 2.3 mph - N/A   Clear
1:30 PM 95.0 °F - 46.4 °F 19% 29.95 in - Variable 2.3 mph - N/A   Clear
2:00 PM 98 °F - 48 °F 11% 29.94 in 19 mi SSE 4.6 mph - -  
2:00 PM 96.8 °F - 48.2 °F 19% 29.92 in - SSE 4.6 mph - N/A   Clear
2:30 PM 98.6 °F - 46.4 °F 17% 29.92 in - SSE 10.4 mph - N/A   Clear
3:00 PM 100.4 °F - 46.4 °F 16% 29.92 in - SSE 8.1 mph - N/A   Clear
3:30 PM 100.4 °F - 44.6 °F 15% 29.92 in - SSE 9.2 mph - N/A   Clear
4:00 PM 100.4 °F - 42.8 °F 14% 29.89 in - South 12.7 mph - N/A   Clear
4:30 PM 100.4 °F - 44.6 °F 15% 29.89 in - South 12.7 mph - N/A   Clear
5:00 PM 100.4 °F - 44.6 °F 15% 29.89 in - South 10.4 mph - N/A   Clear
5:30 PM 98.6 °F - 46.4 °F 17% 29.89 in - South 11.5 mph - N/A   Clear
6:00 PM 98.6 °F 96.4 °F 53.6 °F 22% 29.89 in - SSW 12.7 mph - N/A   Clear
6:30 PM 96.8 °F 95.8 °F 57.2 °F 27% 29.89 in - SW 9.2 mph - N/A   Clear
7:00 PM 95.0 °F 93.7 °F 57.2 °F 28% 29.89 in - WSW 8.1 mph - N/A   Clear
7:30 PM 93.2 °F 91.9 °F 57.2 °F 30% 29.86 in - SW 6.9 mph - N/A   Clear
8:00 PM 93.2 °F 91.9 °F 57.2 °F 30% 29.86 in - SW 5.8 mph - N/A   Clear
8:30 PM 91.4 °F 89.9 °F 57.2 °F 31% 29.86 in - WSW 5.8 mph - N/A   Clear
9:00 PM 87.8 °F 86.5 °F 57.2 °F 35% 29.89 in - West 6.9 mph - N/A   Clear
9:30 PM 84.2 °F 83.5 °F 57.2 °F 40% 29.89 in - WSW 5.8 mph - N/A   Clear
10:00 PM 82.4 °F 82.0 °F 57.2 °F 42% 29.89 in - West 3.5 mph - N/A   Clear
10:30 PM 80.6 °F 81.1 °F 59.0 °F 48% 29.92 in - West 3.5 mph - N/A   Clear
11:00 PM 78.8 °F - 62.6 °F 57% 29.92 in - Variable 1.2 mph - N/A   Clear